Content
SEND FEEDBACK

Daily
Averages
Monthly
Summary
United States of America

ANN ARBOR, MICHIGAN


Home > North America > United States > Michigan
Elevation: 759 feet     Latitude: 42 17N     Longitude: 083 43W

WEATHER
 
SELECT A DAY
Number of Records: 204,337;   Date Range: 1/1/95 - 9/16/14
 
SHARE

PRINT THIS DATA

[ ← Previous Day ]
WEATHER ALMANAC - SEPTEMBER 18, 2013
[ Next Day → ]
[ °C ]   °F
Weather ElementAverageHighLow
Temperature58.1 °F73.9 °F (2:53 pm)42.8 °F (5:59 am)
Dewpoint50 °F57 °F (9:53 pm)41 °F (1:53 am)
Humidity77.5 %100 % (5:59 am)42 % (3:53 pm)
Barometer30.14 in30.21 in (1:53 am)30.05 in (6:53 pm)
Wind Speed2.4 mph8.1 mph (2:53 pm)
Weather ElementAverage
Visibility8.6 mi
Wind DirectionENE (68.1 °)

Weather ElementTotal
Precipitation---
Heating Degree Days6.7 (Base 65)
Growing Degree Days8.4 (Base 50)
Averaged from 26 records on September 18, 2013
WEATHER CONDITIONS BREAKOUT
WIND DIRECTION BREAKOUT
WEATHER BY HOUR - SEPTEMBER 18, 2013
[ °C ]   °F
Local TimeTemperatureDewpointHumidityBarometerVisibilityWind DirectionWind SpeedGust SpeedPrecipitationEventsConditions
1:53 AM43.0 °F41.0 °F93 %30.21 in10.0 miCalmClear
2:53 AM44.1 °F42.1 °F93 %30.20 in10.0 miCalmClear
3:53 AM43.0 °F42.1 °F97 %30.19 in10.0 miCalmClear
4:53 AM44.1 °F43.0 °F96 %30.18 in10.0 miCalmClear
5:53 AM44.1 °F43.0 °F96 %30.19 in5.0 miCalmClear
5:59 AM42.8 °F42.8 °F100 %30.18 in1.8 miCalmClear
6:09 AM46.4 °F42.8 °F87 %30.18 in3.0 miCalmClear
6:53 AM46.0 °F44.1 °F93 %30.19 in10.0 miCalmClear
7:53 AM46.9 °F45.0 °F93 %30.19 in10.0 miCalmClear
8:53 AM55.0 °F51.1 °F86 %30.19 in10.0 miCalmClear
9:53 AM61.0 °F53.1 °F75 %30.19 in10.0 miCalmClear
10:53 AM64.9 °F54.0 °F68 %30.18 in10.0 miSE (140°)3.5 mphClear
11:53 AM66.9 °F54.0 °F63 %30.18 in10.0 miSouth (190°)3.5 mphClear
12:53 PM69.1 °F54.0 °F58 %30.15 in10.0 miSSW (210°)4.6 mphClear
1:53 PM73.0 °F53.1 °F49 %30.14 in10.0 miSouth (190°)6.9 mphClear
2:53 PM73.9 °F51.1 °F45 %30.12 in10.0 miSouth (180°)8.1 mphClear
3:53 PM73.0 °F48.9 °F42 %30.10 in10.0 miSouth (180°)8.1 mphClear
4:53 PM72.0 °F53.1 °F51 %30.07 in10.0 miSE (130°)6.9 mphClear
5:53 PM73.0 °F54.0 °F51 %30.06 in10.0 miSSE (160°)6.9 mphClear
6:53 PM70.0 °F54.0 °F57 %30.05 in10.0 miSE (130°)5.8 mphClear
7:53 PM64.9 °F55.0 °F70 %30.06 in10.0 miSE (130°)4.6 mphClear
8:53 PM63.0 °F55.9 °F78 %30.06 in10.0 miSE (130°)4.6 mphClear
9:53 PM61.0 °F57.0 °F87 %30.07 in10.0 miCalmClear
10:53 PM59.0 °F55.9 °F90 %30.06 in9.0 miCalmClear
11:53 PM55.9 °F55.0 °F97 %30.06 in3.0 miCalmClear
11:57 PM55.4 °F55.4 °F100 %30.06 in1.8 miCalmClear
Hourly data recorded from KARB, located miles away from Ann Arbor, Michigan







STORIES FROM OUR PARTNERS